Location: Les Coudrans
(46.1056°N, 1.1158°W)
Time: 21:22:52
(UTC+00:00)

Helios 1A Rocket - Visible Passes

Search period start: 24 June 2021 00:00
Search period end: 04 July 2021 00:00
Orbit: 562 x 586 km, 98.3° (Epoch: 23 June)

Date Brightness Start Highest point End Pass type
(mag) Time Alt. Az. Time Alt. Az. Time Alt. Az.
28 Jun 5.1 20:33:50 10° SSW 20:37:09 24° W 20:40:29 10° NW visible
29 Jun 5.2 20:37:00 10° SSW 20:40:13 23° W 20:43:27 10° NW visible
30 Jun 5.3 20:40:09 10° SW 20:43:16 21° W 20:46:24 10° NW visible
01 Jul 5.4 20:43:20 10° SW 20:46:20 20° W 20:49:21 10° NW visible
02 Jul 5.5 20:46:31 10° SW 20:49:24 19° W 20:52:18 10° NW visible
03 Jul 5.5 20:49:43 10° SW 20:52:28 18° W 20:55:14 10° NW visible
